• In Romania
  • List of Countries
  • For 7 days
  • Water Temperature
  • Satellite Maps
  • Weather Map
  • Weather Widgets
  • user-avatar
    Login

    Hourly Weather Bambari

    Today, 21 October, Saturday

    Time Temperature Precipitation Wind Pressure Humidity
    00:00 +24°C° 0 mm 0 mps 721 mmHg 61%
    01:00 +26°C° 0 mm 1 mps 721 mmHg 62%
    02:00 +23°C° 0 mm 0 mps 721 mmHg 64%
    03:00 +23°C° 0 mm 0 mps 721 mmHg 66%
    04:00 +22°C° 0 mm 0 mps 720 mmHg 67%
    05:00 +23°C° 0 mm 0 mps 721 mmHg 67%
    06:00 +24°C° 0 mm 0 mps 721 mmHg 67%
    07:00 +25°C° 0 mm 0 mps 722 mmHg 67%
    08:00 +28°C° 0 mm 0 mps 722 mmHg 59%
    09:00 +31°C° 0 mm 0 mps 723 mmHg 52%
    10:00 +35°C° 0 mm 1 mps 723 mmHg 44%
    11:00 +36°C° 0 mm 1 mps 722 mmHg 41%
    12:00 +37°C° 0 mm 1 mps 721 mmHg 37%
    13:00 +37°C° 0 mm 1 mps 721 mmHg 34%
    14:00 +37°C° 0 mm 1 mps 720 mmHg 37%
    15:00 +36°C° 0 mm 1 mps 720 mmHg 41%
    16:00 +35°C° 0 mm 1 mps 719 mmHg 45%
    17:00 +33°C° 0 mm 1 mps 720 mmHg 48%
    18:00 +29°C° 0 mm 0 mps 720 mmHg 51%
    19:00 +27°C° 0 mm 0 mps 720 mmHg 55%
    20:00 +26°C° 0 mm 0 mps 720 mmHg 55%
    21:00 +26°C° 0 mm 0 mps 721 mmHg 56%
    22:00 +26°C° 0 mm 0 mps 721 mmHg 56%
    23:00 +25°C° 0 mm 0 mps 721 mmHg 59%

    Tomorrow, 22 October, Sunday

    Time Temperature Precipitation Wind Pressure Humidity
    00:00 +27°C° 0 mm 1 mps 721 mmHg 61%
    01:00 +26°C° 0 mm 1 mps 720 mmHg 63%
    02:00 +26°C° 0 mm 1 mps 720 mmHg 67%
    03:00 +23°C° 0 mm 0 mps 720 mmHg 71%
    04:00 +23°C° 0 mm 0 mps 720 mmHg 74%
    05:00 +24°C° 0 mm 0 mps 721 mmHg 73%
    06:00 +25°C° 0 mm 0 mps 721 mmHg 72%
    07:00 +26°C° 0 mm 0 mps 722 mmHg 70%
    08:00 +29°C° 0 mm 0 mps 722 mmHg 62%
    09:00 +33°C° 0 mm 1 mps 723 mmHg 55%
    10:00 +36°C° 0 mm 1 mps 723 mmHg 47%
    11:00 +37°C° 0 mm 1 mps 722 mmHg 43%
    12:00 +37°C° 0 mm 0 mps 721 mmHg 40%
    13:00 +38°C° 0 mm 0 mps 720 mmHg 36%
    14:00 +36°C° 0 mm 0 mps 719 mmHg 41%
    15:00 +34°C° 0 mm 0 mps 719 mmHg 46%
    16:00 +34°C° 0 mm 1 mps 718 mmHg 51%
    17:00 +33°C° 0 mm 1 mps 719 mmHg 54%
    18:00 +29°C° 0 mm 0 mps 719 mmHg 57%
    19:00 +28°C° 0 mm 0 mps 719 mmHg 60%
    20:00 +29°C° 0.4 mm 1 mps 720 mmHg 64%
    21:00 +28°C° 0.4 mm 1 mps 720 mmHg 68%
    22:00 +27°C° 0.4 mm 1 mps 720 mmHg 72%
    23:00 +27°C° 0.1 mm 2 mps 720 mmHg 75%

    Day after tomorrow, 23 October, Monday

    Time Temperature Precipitation Wind Pressure Humidity
    00:00 +27°C° 0.1 mm 2 mps 720 mmHg 78%
    01:00 +26°C° 0.1 mm 2 mps 720 mmHg 80%
    02:00 +26°C° 0.2 mm 2 mps 720 mmHg 83%
    03:00 +25°C° 0.2 mm 2 mps 720 mmHg 87%
    04:00 +25°C° 0.2 mm 1 mps 720 mmHg 90%
    05:00 +26°C° 0 mm 1 mps 720 mmHg 87%
    06:00 +26°C° 0 mm 1 mps 721 mmHg 85%
    07:00 +27°C° 0 mm 1 mps 721 mmHg 83%
    08:00 +29°C° 0 mm 1 mps 722 mmHg 73%
    09:00 +32°C° 0 mm 2 mps 722 mmHg 63%
    10:00 +35°C° 0 mm 2 mps 722 mmHg 54%
    11:00 +36°C° 0.3 mm 2 mps 721 mmHg 51%
    12:00 +35°C° 0.3 mm 1 mps 720 mmHg 48%
    13:00 +36°C° 0.3 mm 1 mps 719 mmHg 46%
    14:00 +35°C° 0.1 mm 1 mps 719 mmHg 51%
    15:00 +34°C° 0.1 mm 1 mps 719 mmHg 57%
    16:00 +32°C° 0.1 mm 1 mps 718 mmHg 63%
    17:00 +31°C° 0 mm 1 mps 719 mmHg 67%
    18:00 +30°C° 0 mm 2 mps 719 mmHg 71%
    19:00 +28°C° 0 mm 2 mps 720 mmHg 75%
    20:00 +28°C° 0.6 mm 1 mps 720 mmHg 79%
    21:00 +27°C° 0.6 mm 1 mps 720 mmHg 82%
    22:00 +26°C° 0.6 mm 1 mps 720 mmHg 86%
    23:00 +26°C° 1.4 mm 1 mps 720 mmHg 88%

    24 October, Tuesday

    Time Temperature Precipitation Wind Pressure Humidity
    00:00 +25°C° 1.4 mm 1 mps 719 mmHg 90%
    01:00 +25°C° 1.4 mm 2 mps 719 mmHg 92%
    02:00 +25°C° 0.2 mm 2 mps 719 mmHg 93%
    03:00 +25°C° 0.2 mm 2 mps 720 mmHg 94%
    04:00 +24°C° 0.2 mm 2 mps 720 mmHg 95%
    05:00 +25°C° 0 mm 2 mps 720 mmHg 94%
    06:00 +25°C° 0 mm 2 mps 721 mmHg 92%
    07:00 +26°C° 0 mm 1 mps 721 mmHg 91%
    08:00 +27°C° 0 mm 1 mps 721 mmHg 85%
    09:00 +28°C° 0 mm 1 mps 721 mmHg 79%
    10:00 +30°C° 0 mm 1 mps 721 mmHg 73%
    11:00 +31°C° 0.1 mm 1 mps 721 mmHg 67%
    12:00 +32°C° 0.1 mm 1 mps 720 mmHg 61%
    13:00 +34°C° 0.1 mm 1 mps 719 mmHg 55%
    14:00 +33°C° 0.2 mm 1 mps 719 mmHg 57%
    15:00 +33°C° 0.2 mm 1 mps 719 mmHg 60%
    16:00 +30°C° 0.2 mm 0 mps 719 mmHg 63%
    17:00 +31°C° 0.3 mm 1 mps 719 mmHg 67%
    18:00 +29°C° 0.3 mm 1 mps 719 mmHg 72%
    19:00 +28°C° 0.3 mm 1 mps 720 mmHg 76%
    20:00 +27°C° 0.1 mm 1 mps 720 mmHg 78%
    21:00 +27°C° 0.1 mm 1 mps 720 mmHg 80%
    22:00 +27°C° 0.1 mm 1 mps 720 mmHg 82%
    23:00 +26°C° 0.6 mm 1 mps 720 mmHg 85%

    25 October, Wednesday

    Time Temperature Precipitation Wind Pressure Humidity
    00:00 +25°C° 0.6 mm 1 mps 720 mmHg 88%
    01:00 +25°C° 0.6 mm 1 mps 719 mmHg 92%
    02:00 +25°C° 1 mm 1 mps 720 mmHg 93%
    03:00 +24°C° 1 mm 1 mps 720 mmHg 94%
    04:00 +24°C° 1 mm 1 mps 720 mmHg 94%
    05:00 +25°C° 0 mm 1 mps 721 mmHg 92%
    06:00 +26°C° 0 mm 1 mps 721 mmHg 90%
    07:00 +26°C° 0 mm 1 mps 722 mmHg 88%
    08:00 +28°C° 0.4 mm 2 mps 722 mmHg 80%
    09:00 +30°C° 0.4 mm 2 mps 722 mmHg 71%
    10:00 +33°C° 0.4 mm 3 mps 722 mmHg 63%
    11:00 +34°C° 0.3 mm 2 mps 721 mmHg 58%
    12:00 +35°C° 0.3 mm 2 mps 720 mmHg 53%
    13:00 +36°C° 0.3 mm 2 mps 719 mmHg 48%
    14:00 +34°C° 0 mm 1 mps 719 mmHg 51%
    15:00 +34°C° 0 mm 1 mps 719 mmHg 54%
    16:00 +33°C° 0 mm 1 mps 719 mmHg 57%
    17:00 +32°C° 0 mm 1 mps 719 mmHg 61%
    18:00 +30°C° 0 mm 1 mps 719 mmHg 64%
    19:00 +28°C° 0 mm 1 mps 720 mmHg 68%
    20:00 +28°C° 0.1 mm 1 mps 720 mmHg 70%
    21:00 +27°C° 0.1 mm 1 mps 720 mmHg 73%
    22:00 +27°C° 0.1 mm 1 mps 720 mmHg 75%
    23:00 +26°C° 0.7 mm 1 mps 720 mmHg 80%

    26 October, Thursday

    Time Temperature Precipitation Wind Pressure Humidity
    00:00 +24°C° 0.7 mm 0 mps 719 mmHg 85%
    01:00 +23°C° 0.7 mm 0 mps 719 mmHg 90%
    02:00 +23°C° 0 mm 0 mps 719 mmHg 89%
    03:00 +23°C° 0 mm 0 mps 719 mmHg 89%
    04:00 +23°C° 0 mm 0 mps 720 mmHg 89%
    05:00 +24°C° 0 mm 0 mps 720 mmHg 88%
    06:00 +24°C° 0 mm 0 mps 721 mmHg 87%
    07:00 +25°C° 0 mm 0 mps 721 mmHg 86%
    08:00 +27°C° 0 mm 0 mps 721 mmHg 78%
    09:00 +29°C° 0 mm 0 mps 721 mmHg 70%
    10:00 +31°C° 0 mm 0 mps 722 mmHg 63%
    11:00 +32°C° 0.2 mm 0 mps 721 mmHg 57%
    12:00 +33°C° 0.2 mm 0 mps 720 mmHg 52%
    13:00 +36°C° 0.2 mm 1 mps 719 mmHg 46%
    14:00 +35°C° 0 mm 1 mps 719 mmHg 49%
    15:00 +35°C° 0 mm 1 mps 719 mmHg 51%
    16:00 +34°C° 0 mm 1 mps 719 mmHg 54%
    17:00 +33°C° 0 mm 1 mps 719 mmHg 57%
    18:00 +29°C° 0 mm 0 mps 719 mmHg 61%
    19:00 +27°C° 0 mm 0 mps 719 mmHg 65%
    20:00 +27°C° 0 mm 0 mps 719 mmHg 66%
    21:00 +26°C° 0 mm 0 mps 719 mmHg 68%
    22:00 +26°C° 0 mm 0 mps 719 mmHg 69%
    23:00 +25°C° 0 mm 0 mps 719 mmHg 71%
    Show more